Hourly Data Report for July 23, 2016

OTTAWA INTL A
ONTARIO

45°19'00.000" N
75°40'00.000" W
114.90 m
6106001
71628
YOW

Download Data

Hourly Data (July 2016)
Hourly Data Report for July 23, 2016
TIME
LST
Temp Definition
°C
Dew Point Definition
°C
Rel Hum Definition
%
Precip. Amount Definition
mm

Wind Dir Definition
10's deg

Wind Spd Definition
km/h
Visibility Definition
km
Stn Press Definition
kPa
Hmdx Definition


Wind Chill Definition


Weather Definition


00:00 21.0 17.1 78   28 18 24.1 99.44 26   LegendNANA
01:00 21.1 17.2 78   29 13 24.1 99.44 27   Mostly Cloudy
02:00 20.1 17.4 84   26 7 24.1 99.45 26   LegendNANA
03:00 19.6 17.4 87   26 10 24.1 99.50     LegendNANA
04:00 19.0 17.4 90   27 16 24.1 99.55     Mainly Clear
05:00 19.1 17.5 90   28 20 24.1 99.56     LegendNANA
06:00 20.1 17.7 86   30 24 24.1 99.58 26   LegendNANA
07:00 21.2 17.7 80   29 24 24.1 99.58 27   Clear
08:00 22.8 18.2 75   29 16 24.1 99.59 29   LegendNANA
09:00 24.6 18.2 67   28 17 24.1 99.63 31   LegendNANA
10:00 26.2 18.0 60   28 25 24.1 99.63 32   Mainly Clear
11:00 27.4 17.7 55   28 27 24.1 99.62 33   LegendNANA
12:00 28.9 17.7 50   28 24 24.1 99.64 35   LegendNANA
13:00 28.2 16.4 48   30 28 24.1 99.65 33   Mostly Cloudy
14:00 27.8 17.2 52   34 31 24.1 99.63 33   Rain Showers
15:00 26.3 15.8 52   33 26 24.1 99.72 31   LegendNANA
16:00 26.6 17.3 56   33 20 24.1 99.80 32   Mainly Clear
17:00 26.8 16.9 54   31 14 24.1 99.85 32   LegendNANA
18:00 26.9 16.1 51   31 22 24.1 99.85 32   LegendNANA
19:00 25.9 16.1 54   31 18 24.1 99.89 31   Mainly Clear
20:00 24.5 15.6 57   32 20 24.1 99.99 29   LegendNANA
21:00 23.5 14.1 55   35 20 24.1 100.00 27   LegendNANA
22:00 22.4 13.9 58   32 14 24.1 100.07 26   Clear
23:00 20.5 13.8 65   30 11 24.1 100.14     LegendNANA

Notes on Data Quality.

Legend

  • E = Estimated
  • M = Missing
  • NA = Not Available*
  • [empty] = Indicates an unobserved value
Date modified: